Previsão horária em Aberdour

Hoje, 13 Abril, Terça-feira

Tempo Temperatura Precipitação Vento Pressão Humidade
00:00 +1°C° 0 mm 1 m/s 762 mmHg 71%
01:00 0°C° 0 mm 1 m/s 762 mmHg 72%
02:00 0°C° 0 mm 1 m/s 762 mmHg 73%
03:00 0°C° 0 mm 1 m/s 762 mmHg 75%
04:00 0°C° 0 mm 1 m/s 762 mmHg 74%
05:00 0°C° 0 mm 1 m/s 762 mmHg 74%
06:00 +1°C° 0 mm 1 m/s 763 mmHg 74%
07:00 +2°C° 0 mm 1 m/s 763 mmHg 67%
08:00 +4°C° 0 mm 1 m/s 763 mmHg 61%
09:00 +6°C° 0 mm 1 m/s 763 mmHg 54%
10:00 +7°C° 0 mm 1 m/s 763 mmHg 51%
11:00 +8°C° 0 mm 1 m/s 763 mmHg 47%
12:00 +9°C° 0 mm 1 m/s 763 mmHg 43%
13:00 +10°C° 0 mm 1 m/s 763 mmHg 45%
14:00 +9°C° 0 mm 2 m/s 762 mmHg 46%
15:00 +9°C° 0 mm 2 m/s 762 mmHg 48%
16:00 +8°C° 0.1 mm 2 m/s 762 mmHg 53%
17:00 +9°C° 0.1 mm 1 m/s 762 mmHg 59%
18:00 +8°C° 0.1 mm 1 m/s 762 mmHg 65%
19:00 +7°C° 0 mm 1 m/s 763 mmHg 70%
20:00 +5°C° 0 mm 1 m/s 763 mmHg 75%
21:00 +4°C° 0 mm 1 m/s 763 mmHg 80%
22:00 +3°C° 0 mm 1 m/s 763 mmHg 82%
23:00 +3°C° 0 mm 1 m/s 764 mmHg 84%

Amanhã, 14 Abril, Quarta-feira

Tempo Temperatura Precipitação Vento Pressão Humidade
00:00 +2°C° 0 mm 1 m/s 764 mmHg 86%
01:00 +2°C° 0 mm 1 m/s 764 mmHg 86%
02:00 +2°C° 0 mm 1 m/s 764 mmHg 87%
03:00 +1°C° 0 mm 0 m/s 764 mmHg 88%
04:00 +1°C° 0 mm 0 m/s 764 mmHg 87%
05:00 +1°C° 0 mm 0 m/s 764 mmHg 86%
06:00 +1°C° 0 mm 0 m/s 764 mmHg 86%
07:00 +3°C° 0 mm 0 m/s 764 mmHg 79%
08:00 +5°C° 0 mm 0 m/s 765 mmHg 72%
09:00 +7°C° 0 mm 0 m/s 765 mmHg 65%
10:00 +8°C° 0 mm 0 m/s 765 mmHg 61%
11:00 +10°C° 0 mm 1 m/s 764 mmHg 57%
12:00 +11°C° 0 mm 1 m/s 764 mmHg 54%
13:00 +11°C° 0 mm 1 m/s 764 mmHg 53%
14:00 +10°C° 0 mm 2 m/s 764 mmHg 53%
15:00 +10°C° 0 mm 2 m/s 764 mmHg 53%
16:00 +9°C° 0 mm 2 m/s 764 mmHg 57%
17:00 +9°C° 0 mm 2 m/s 764 mmHg 61%
18:00 +8°C° 0 mm 2 m/s 764 mmHg 65%
19:00 +7°C° 0 mm 2 m/s 764 mmHg 70%
20:00 +5°C° 0 mm 2 m/s 765 mmHg 74%
21:00 +5°C° 0 mm 1 m/s 765 mmHg 79%
22:00 +4°C° 0 mm 1 m/s 765 mmHg 79%
23:00 +4°C° 0 mm 1 m/s 765 mmHg 80%

Depois de amanhã, 15 Abril, Quinta-feira

Tempo Temperatura Precipitação Vento Pressão Humidade
00:00 +4°C° 0 mm 1 m/s 765 mmHg 80%
01:00 +4°C° 0 mm 1 m/s 765 mmHg 81%
02:00 +3°C° 0 mm 1 m/s 765 mmHg 81%
03:00 +2°C° 0 mm 0 m/s 765 mmHg 82%
04:00 +2°C° 0 mm 0 m/s 765 mmHg 81%
05:00 +2°C° 0 mm 0 m/s 765 mmHg 80%
06:00 +2°C° 0 mm 0 m/s 765 mmHg 80%
07:00 +5°C° 0 mm 1 m/s 765 mmHg 72%
08:00 +7°C° 0 mm 1 m/s 765 mmHg 65%
09:00 +9°C° 0 mm 1 m/s 765 mmHg 58%
10:00 +8°C° 0 mm 2 m/s 765 mmHg 56%
11:00 +9°C° 0 mm 2 m/s 765 mmHg 53%
12:00 +10°C° 0 mm 3 m/s 765 mmHg 51%
13:00 +10°C° 0 mm 3 m/s 764 mmHg 51%
14:00 +10°C° 0 mm 4 m/s 764 mmHg 51%
15:00 +10°C° 0 mm 4 m/s 764 mmHg 51%
16:00 +8°C° 0 mm 4 m/s 764 mmHg 55%
17:00 +7°C° 0 mm 4 m/s 764 mmHg 59%
18:00 +7°C° 0 mm 4 m/s 763 mmHg 63%
19:00 +5°C° 0 mm 3 m/s 764 mmHg 67%
20:00 +4°C° 0 mm 3 m/s 764 mmHg 72%
21:00 +3°C° 0 mm 2 m/s 764 mmHg 76%
22:00 +3°C° 0 mm 2 m/s 764 mmHg 78%
23:00 +2°C° 0 mm 2 m/s 764 mmHg 80%

16 Abril, Sexta-feira

Tempo Temperatura Precipitação Vento Pressão Humidade
00:00 +3°C° 0 mm 1 m/s 764 mmHg 81%
01:00 +2°C° 0 mm 1 m/s 764 mmHg 83%
02:00 +2°C° 0 mm 1 m/s 764 mmHg 84%
03:00 +2°C° 0 mm 1 m/s 764 mmHg 85%
04:00 +2°C° 0 mm 1 m/s 764 mmHg 84%
05:00 +2°C° 0 mm 1 m/s 764 mmHg 83%
06:00 +2°C° 0 mm 1 m/s 764 mmHg 82%
07:00 +3°C° 0 mm 0 m/s 764 mmHg 75%
08:00 +5°C° 0 mm 0 m/s 764 mmHg 68%
09:00 +7°C° 0 mm 0 m/s 764 mmHg 61%
10:00 +9°C° 0 mm 1 m/s 764 mmHg 57%
11:00 +10°C° 0 mm 1 m/s 764 mmHg 53%
12:00 +10°C° 0 mm 2 m/s 764 mmHg 48%
13:00 +10°C° 0 mm 2 m/s 764 mmHg 48%
14:00 +10°C° 0 mm 3 m/s 763 mmHg 47%
15:00 +10°C° 0 mm 3 m/s 763 mmHg 47%
16:00 +9°C° 0 mm 3 m/s 763 mmHg 52%
17:00 +8°C° 0 mm 3 m/s 763 mmHg 57%
18:00 +8°C° 0 mm 3 m/s 763 mmHg 62%
19:00 +5°C° 0 mm 3 m/s 763 mmHg 67%
20:00 +5°C° 0 mm 2 m/s 763 mmHg 72%
21:00 +4°C° 0 mm 2 m/s 764 mmHg 77%
22:00 +3°C° 0 mm 2 m/s 764 mmHg 78%
23:00 +4°C° 0 mm 1 m/s 764 mmHg 80%

17 Abril, Sábado

Tempo Temperatura Precipitação Vento Pressão Humidade
00:00 +3°C° 0 mm 1 m/s 764 mmHg 82%
01:00 +3°C° 0 mm 1 m/s 763 mmHg 82%
02:00 +2°C° 0 mm 1 m/s 763 mmHg 82%
03:00 +2°C° 0 mm 1 m/s 763 mmHg 83%
04:00 +2°C° 0 mm 1 m/s 763 mmHg 81%
05:00 +2°C° 0 mm 1 m/s 763 mmHg 80%
06:00 +2°C° 0 mm 1 m/s 763 mmHg 78%
07:00 +3°C° 0 mm 2 m/s 763 mmHg 69%
08:00 +5°C° 0 mm 2 m/s 762 mmHg 60%
09:00 +7°C° 0 mm 2 m/s 762 mmHg 51%
10:00 +8°C° 0 mm 3 m/s 762 mmHg 50%
11:00 +9°C° 0 mm 3 m/s 761 mmHg 48%
12:00 +10°C° 0 mm 4 m/s 761 mmHg 47%
13:00 +10°C° 0 mm 4 m/s 760 mmHg 48%
14:00 +9°C° 0 mm 5 m/s 760 mmHg 49%
15:00 +10°C° 0 mm 5 m/s 759 mmHg 50%
16:00 +9°C° 0 mm 5 m/s 759 mmHg 55%
17:00 +8°C° 0 mm 4 m/s 759 mmHg 59%
18:00 +8°C° 0 mm 4 m/s 758 mmHg 64%
19:00 +7°C° 0 mm 4 m/s 758 mmHg 68%
20:00 +6°C° 0 mm 4 m/s 758 mmHg 72%
21:00 +4°C° 0 mm 3 m/s 758 mmHg 75%
22:00 +4°C° 0 mm 3 m/s 758 mmHg 76%
23:00 +4°C° 0 mm 3 m/s 758 mmHg 77%

18 Abril, Domingo

Tempo Temperatura Precipitação Vento Pressão Humidade
00:00 +5°C° 0 mm 2 m/s 757 mmHg 78%
01:00 +5°C° 0 mm 2 m/s 757 mmHg 79%
02:00 +5°C° 0 mm 2 m/s 757 mmHg 79%
03:00 +4°C° 0 mm 2 m/s 757 mmHg 80%
04:00 +5°C° 0 mm 2 m/s 756 mmHg 79%
05:00 +5°C° 0 mm 2 m/s 756 mmHg 78%
06:00 +5°C° 0 mm 2 m/s 756 mmHg 77%
07:00 +5°C° 0 mm 3 m/s 756 mmHg 74%
08:00 +6°C° 0 mm 4 m/s 756 mmHg 72%
09:00 +7°C° 0 mm 4 m/s 755 mmHg 69%
10:00 +7°C° 0 mm 4 m/s 755 mmHg 71%
11:00 +7°C° 0 mm 4 m/s 755 mmHg 73%
12:00 +7°C° 0 mm 4 m/s 755 mmHg 75%
13:00 +7°C° 0 mm 4 m/s 754 mmHg 72%
14:00 +8°C° 0 mm 3 m/s 754 mmHg 69%
15:00 +9°C° 0 mm 3 m/s 753 mmHg 67%
16:00 +8°C° 0.2 mm 3 m/s 753 mmHg 70%
17:00 +8°C° 0.2 mm 3 m/s 753 mmHg 74%
18:00 +7°C° 0.2 mm 3 m/s 753 mmHg 78%
19:00 +7°C° 1.1 mm 3 m/s 752 mmHg 82%
20:00 +5°C° 1.1 mm 3 m/s 752 mmHg 87%
21:00 +5°C° 1.1 mm 3 m/s 752 mmHg 92%
22:00 +5°C° 0.3 mm 3 m/s 752 mmHg 92%
23:00 +6°C° 0.3 mm 2 m/s 751 mmHg 92%
Mostrar mais

Necessitamos do seu Consentimento

A Meteoprog e os seus Fornecedores de Serviços podem armazenar e aceder a dados pessoais como cookies, identificadores do dispositivo ou outras tecnologias semelhantes existentes no seu dispositivo e processar estes dados para personalizar conteúdos e anúncios, assim como funcionalidades nas redes sociais e análise de tráfego.

  • Armazenar e/ou aceder a informações no seu dispositivo

    Os cookies, identificadores do dispositivo ou outras informações podem ser armazenados ou acedidos no seu dispositivo, para os fins acima indicados.

  • Anúncios e conteúdos personalizados, medição de anúncios e conteúdos, dados sobre o público-alvo e desenvolvimento de produtos

    Os anúncios e os conteúdos podem ser personalizados com base num perfil. Podem ser adicionados dados adicionais para uma maior personalização dos anúncios e dos conteúdos. A eficácia dos anúncios e dos conteúdos pode ser medida. Podem ser obtidas informações sobre o público que visualizou os anúncios e os conteúdos. Estes dados podem ser usados para desenvolver ou melhorar sistemas, softwares ou a experiência do utilizador.

Ao clicar em "Eu concordo”, permitirá o uso de cookies, identificadores do dispositivo e web beacons mencionados ou outras tecnologias semelhantes. As configurações do navegador do seu dispositivo podem ser alteradas.

Para certos fins, podem ser invocados interesses legítimos ao invés de consentimento. Pode ler mais informação sobre este assunto na nossa Política de Privacidade e Cookies.